STARLINK-35710 (66212 NORAD) Tracking and Keplerian Element Data

This shows tracking and keplerian element data for the satellite.

Feedback or suggestion? Click here.




ElementValue
Catalog66212
NameSTARLINK-35710
Epoch Orbit597
Epoch Day353.00002315
Epoch Year2025
RAAN246.5296
Inclination53.1603
Eccentricity0.0001188
Argument of Perigee81.3375
Mean Anonmoly145.3746
Mean Motion15.39608152
Decay Rate0.00014604
L11 66212U 25244G 25353.00002315 .00014604 00000+0 37452-3 0 9991
L22 66212 53.1603 246.5296 0001188 81.3375 145.3746 15.39608152 5977



Live tracking and technical data element details for STARLINK-35710 (NORAD 66212). STARLINK-35710 can be tracked NOW for your location showing map with azimuth and elevation plus other details from your city location.







IsCatalogInMostPopularTable: catalog: 66212, numindb: 4
Update: records affected: 1



GetName: 66212 STARLINK-35710

Hit Count: updated at: Sun, 08 Feb 2026 08:09:02 GMT